Weather History for Altus AFB, OK

Change the Weather History Date:

Sunday, January 12, 2014

  Actual Average Record
Temperature  
Mean Temperature 53 °F -  
Max Temperature 78 °F 48 °F 78 °F (2014)
Min Temperature 28 °F 26 °F 12 °F (1997)
Degree Days  
Heating Degree Days 12    
Growing Degree Days 3 (Base 50)    
Moisture  
Dew Point 26 °F    
Average Humidity 40    
Maximum Humidity 81    
Minimum Humidity 15    
Precipitation  
Precipitation 0.00 in - - ()
Sea Level Pressure  
Sea Level Pressure 29.75 in    
Wind  
Wind Speed 11 mph (SSW)    
Max Wind Speed 30 mph    
Max Gust Speed 38 mph    
Visibility 10 miles    
Events      
Averages and records for this station are not official NWS values.
T = Trace of Precipitation, MM = Missing Value Source: NWS Daily Summary

Daily Weather History Graph

Daily Weather History Graph

Search for Another Location

Airport:

Trip Planner

Search our weather history database for the weather conditions in past years. The results will help you decide how hot, cold, wet, or windy it might be!

Date:

Astronomy

Jan. 12, 2014 Rise Set
Actual Time 7:44 AM CST 5:46 PM CST
Civil Twilight 7:16 AM CST 6:14 PM CST
Nautical Twilight 6:45 AM CST 6:45 PM CST
Astronomical Twilight 6:15 AM CST 7:15 PM CST
Moon 3:14 PM CST (1/12) 4:45 AM CST (1/12)
Length of Visible Light 10h 57m
Length of Day
10h 02m
Waxing Gibbous, 90% of the Moon is Illuminated
Jan 12
Waxing Gibbous
Jan 15
Full
Jan 23
Last Quarter
Jan 30
New
Feb 6
First Quarter

Hourly Weather History & Observations

Time (CST) Temp. Windchill Dew Point Humidity Pressure Visibility Wind Dir Wind Speed Gust Speed Precip Events Conditions
12:58 AM 35.6 °F - 21.2 °F 56% 29.91 in 10.0 mi ESE 2.3 mph - N/A   Clear
1:58 AM 28.8 °F - 20.8 °F 72% 29.91 in 10.0 mi East 2.3 mph - N/A   Clear
2:58 AM 32.5 °F - 21.7 °F 64% 29.89 in 10.0 mi ESE 2.3 mph - N/A   Clear
3:58 AM 29.1 °F 23.0 °F 22.3 °F 76% 29.88 in 10.0 mi SE 5.8 mph - N/A   Clear
4:58 AM 28.4 °F - 23.2 °F 81% 29.86 in 10.0 mi Calm Calm - N/A   Clear
5:58 AM 29.7 °F 24.7 °F 23.2 °F 77% 29.84 in 10.0 mi SE 4.6 mph - N/A   Clear
6:58 AM 30.6 °F 24.7 °F 24.4 °F 78% 29.83 in 10.0 mi SE 5.8 mph - N/A   Clear
7:58 AM 34.9 °F 25.7 °F 26.6 °F 72% 29.82 in 10.0 mi SSE 13.8 mph - N/A   Clear
8:58 AM 42.8 °F 37.5 °F 28.9 °F 58% 29.82 in 10.0 mi SSE 9.2 mph - N/A   Clear
9:58 AM 55.6 °F - 29.5 °F 37% 29.81 in 10.0 mi SSW 18.4 mph - N/A   Clear
10:58 AM 61.0 °F - 30.4 °F 32% 29.77 in 10.0 mi SSW 25.3 mph 31.1 mph N/A   Clear
11:58 AM 67.1 °F - 29.3 °F 24% 29.74 in 10.0 mi SSW 25.3 mph 35.7 mph N/A   Clear
12:58 PM 71.1 °F - 29.8 °F 22% 29.67 in 10.0 mi SSW 28.8 mph 36.8 mph N/A   Clear
1:58 PM 75.7 °F - 28.9 °F 18% 29.62 in 6.0 mi SW 29.9 mph 38.0 mph N/A   Haze
2:58 PM 78.6 °F - 27.7 °F 15% 29.59 in 9.0 mi SW 28.8 mph 38.0 mph N/A   Clear
3:58 PM 78.8 °F - 28.0 °F 16% 29.58 in 10.0 mi SSW 24.2 mph 32.2 mph N/A   Clear
4:58 PM 76.1 °F - 28.9 °F 18% 29.59 in 10.0 mi SW 11.5 mph - N/A   Clear
5:58 PM 68.5 °F - 26.2 °F 20% 29.60 in 10.0 mi SW 11.5 mph - N/A   Clear
6:58 PM 61.5 °F - 24.8 °F 25% 29.63 in 10.0 mi SW 8.1 mph - N/A   Clear
7:58 PM 68.7 °F - 21.0 °F 16% 29.65 in 10.0 mi WSW 13.8 mph - N/A   Clear
8:58 PM 65.5 °F - 21.2 °F 18% 29.66 in 10.0 mi WSW 16.1 mph - N/A   Partly Cloudy
9:11 PM 66.2 °F - 21.2 °F 18% 29.70 in 10.0 mi WNW 24.2 mph 29.9 mph N/A   Clear
9:19 PM 64.4 °F - 23.0 °F 21% 29.73 in 10.0 mi NNW 23.0 mph 33.4 mph N/A   Clear
9:58 PM 57.0 °F - 29.1 °F 35% 29.75 in 10.0 mi North 21.9 mph 26.5 mph N/A   Clear
10:58 PM 55.2 °F - 29.7 °F 38% 29.78 in 10.0 mi North 21.9 mph 28.8 mph N/A   Partly Cloudy
11:58 PM 54.5 °F - 27.0 °F 35% 29.83 in 10.0 mi North 20.7 mph 27.6 mph N/A   Partly Cloudy